{"data":{"norad_id":65444,"intl_designator":"2025-194L","name":"STARLINK-35049","alt_names":[],"object_type":"PAYLOAD","status":"ACTIVE","operator":null,"country":"US","launch_date":"2025-09-03","launch_site_code":"AFWTR","launch_vehicle":null,"mission":null,"orbit_class":"UNKNOWN","rcs_meters":null,"size_class":null,"mass_kg":null,"dimensions":null,"purposes":["comms"],"wikipedia_slug":null,"has_3d_model":false,"image_url":null,"decayed_at":null,"tle_current":{"epoch":"2026-05-25T02:10:32.407104Z","epoch_age_seconds":74141,"freshness":"FRESH","line1":"1 65444U 25194L   26145.09065286  .00003573  00000+0  25146-3 0  9996","line2":"2 65444  97.4509 359.3140 0002047  96.0478 264.0982 15.05660808 41141","mean_motion":15.05660808,"eccentricity":0.0002047,"inclination_deg":97.4509,"raan_deg":359.314,"arg_perigee_deg":96.0478,"mean_anomaly_deg":264.0982,"bstar":0.00025146,"rev_number":4114,"period_min":95.639070390149,"perigee_km":548.05991897808,"apogee_km":550.89608455981,"semimajor_km":6927.6150017689,"source":"CELESTRAK","updated_at":"2026-05-25T13:38:20.807816Z"}}}